7 * 24
多渠道服务支持
MMS 2是美国NASA磁层多尺度任务(MMS)的四颗探测卫星之一,于2015年3月13日发射升空。作为该任务编队的重要组成部分,它与另外三颗卫星以四面体编队飞行,共同聚焦地球磁层中的磁重联现象研究。 卫星携带等离子分析仪、高能粒子探测仪、磁强计等科学载荷,深入磁重联核心区域,三维绘制粒子与场相互作用图景,助力揭示宇宙中能量快速转移的物理机制,为理解空间天气、聚变能源等领域提供关键观测数据,推动人类对空间等离子物理的认知。
美国
(US)
| 数据来源 | 国际轨道数据 |
| 星历时间: | 2026-09-14T06:00:02+0800 4小时前 查看轨道信息 |
| 半长轴: | 98325.061km |
| 偏心率: | 0.8270305 |
| 轨道倾角: | 72.957° |
| 近地点辐角 | 169.394° |
| 升交点赤经 | 347.762° |
| 平近点角 | 349.743° |
| 近地点: | 10629.099km |
| 远地点: | 173264.749km |
| 周期: | 5113.945分钟 |
| 每日圈数: | 0.281583 |